COSMOS 385

Satellite information

Favourite Embed

Satellite Type and Status

PAYLOADIN ORBIT

Key statistics

Satellite COSMOS 385 at a glance.

Uptime

20051

Days in orbit

Revolutions

≈ 13.8

Per day

Orbit

LEO

Low Earth Orbit

Inclination

74.0

Latest

Satellite identification and parameters

Extended collection of information and parameters for COSMOS 385.

Object identification

Identified? True

Debris? False

Object name: COSMOS 385

International designator: 1970-108A

Object number (NORAD): 4799

Object ID (CCSDS): 4799

Country: COMMONWEALTH OF INDEPENDENT STATES (CIS)

Current information (Y/N): Y

RCS size: LARGE

Orbital parameters

Period: 104.578 minutes

Inclination: 74.023 deg

SMA: 7352.825 km

Apoapsis: 977.13 km

Periapsis: 972.251 km

RAAN: 47.3448 deg

Eccentricy: 0.0003318

Argument of periapsis: 27.5425 deg

Mean anomaly: 52.2399 deg

Mean motion: 13.76960174 rev/day

Mean motion (dot): 0.00000014 rev/day2

B* drag term: 0.000037526 1/REarth

Two-line elements (TLE)

Creation date: Nov. 2, 2025, 3:46 p.m.

Reference frame: TEME

Reference center: EARTH

Epoch: Nov. 2, 2025, 12:15 p.m. UTC

TLE line 0: 0 COSMOS 385

TLE line 1: 1 4799U 70108A 25306.51103029 .00000014 00000-0 37526-4 0 9994

TLE line 2: 2 4799 74.0230 47.3448 0003318 27.5425 52.2399 13.76960174757358

Live tracking on map

Real-time ground track for satellite COSMOS 385.

In-orbit conjunctions

There are no conjunctions computed for COSMOS 385, at the moment. Check back to stay up to date, as we update our databases every day.

Go to all conjunctions

Associated space launch

The first soviet navigation system called Tsiklon consisted of Zaliv satellites in low earth orbit.

COSMOS 385 was lifted into orbit during the mission ‘Kosmos-3M | Zaliv 7’, on board a Kosmos-3M space rocket.

The launch took place on Dec. 12, 1970, 1 p.m. from 132/2.

For more information about the launch, click the button.

Launch to space Kosmos-3M | Zaliv 7
Kosmos-3M | Zaliv 7

Agency: N/A

Status: Launch Successful

Launch date: Dec. 12, 1970, 1 p.m. UTC

Rocket: Kosmos-3M

Launch pad: 132/2

Location: Plesetsk Cosmodrome, Russian Federation

...

Latest news about this satellite

There are no fresh news available about this satellite. Check back as we update our databases every day.


Newsletter sign-up

Weekly statistics, charts and insights to help you stay on top of the space industry.